STARLINK-11204, 60931

Orbit data source: Space-Track

STARLINK-11204, 60931 is a payload satellite owned by SpaceX/Seattle (US) in LEO that was launched on Sat, 31 Aug 2024 UTC via an FALCON 9 launch vehicle from the Air Force Western Test Range (AFWTR). Payloads include a variety of satellites, spacecraft, and rockets equipped with specific instruments for various scientific and technological missions. These include communications satellites like Starlink; space stations such as the ISS; scientific satellites like the Hubble; Earth observation satellites from companies like Planet Labs, Umbra, and HawkEye 360; GPS; miniature CubeSats for education and research; and military/defense satellites.

Loading next visibility...
STARLINK-11204 details
Identifier
60931, 2024-155H
Orbit
LEO
Last TLE update18 hours ago
Origin
Flag of USSpaceX/Seattle (US)
ManufacturerSpaceX/Seattle
MissionOperational spacecraft
Bus & MotorSTARLINK V2M, Unknown motor
Mass730 kg wet, ~700 kg dry
Launch date (UTC)
2024-08-31 (5 months ago)
Launch vehicle
FALCON 9
Launch site
Air Force Western Test Range (AFWTR)
Object type
Payload
Rocket body
Debris
Shape & HBRUnknown
Radar Cross SectionLarge (>1 m²)

Expand to show TLE details & history

TLE from 18 hours ago
0 STARLINK-11204
1 60931U 24155H   25014.86783744 -.00000501  00000-0  72452-6 0  9998
2 60931  53.1592 245.7454 0001139  93.0942 267.0206 15.69710997 22627
Epoch: 2025-01-14T20:49Z
Definitive object data (Epoch: 2025-01-14T20:49:41.154Z)
Latitude-0.00006°
Longitude178.75551°
Altitude360.679 km
Speed7.694 km/s
True Right ascension16h 22m 58s
True Declination0° 00' 00"
Sunlit
Object was in daylight at TLE epoch
Visualization TLE readout
Latitude-27.32741°
Longitude17.7572°
Altitude368.227 km
Speed7.688 km/s
Apparent Right ascension04h 33m 51s
Apparent Declination-34° 37' 05"
Sunlit
Object is in full shadow
Visualization observer readout
Local Sidereal Time15:13:34
Azimuth282.042° WNW
Elevation-73.213°
Doppler factor1
Orbital elements
Apogee altitude360.752 km
Perigee altitude359.217 km
Semi-major axis6,738.122 km
Eccentricity0.0001139
Inclination53.1592°
RAAN245.7454°
Arg. of periapsis93.0942°
True anomaly267.00757°
Mean anomaly267.0206°
Eccentric anomaly267.01408°
Mean motion3.92405 °/min
BSTAR7.2452e-7
Orbital period91.74 mins
Loading maneuver chart data...
Loading historical data...
Loading historical data...
Loading historical data...
Loading historical data...
Loading historical data...
Loading historical data...
Loading historical data...

STARLINK-11204 Visibility forecast

Observer location: undefined°, undefined

Span
Click to sort rows by Start time (UTC) header in descending order
Start Az.
Max El. time (UTC)
Max El. Az.
Max El.
End time (UTC)
End Az.
4 mins2025-01-16 00:50:51.508Z301.538° NW2025-01-16 00:52:51.508Z183.802° SSW41.719°2025-01-16 00:54:51.508Z140.457° SSE
|